Flag for El Salvador Weather past 2 weeks in San Salvador, El Salvador

Now
72 °F

Passing clouds.


Feels Like: 65 °F
Forecast: 67 / 85 °F
Wind: 3 mph from Northeast

Location: El Salvador Intl. Airport / Comalapa

Current Time: Dec 21, 2014 at 5:02:00 AM

Latest Report: Dec 21, 2014 at 3:50 AM


Visibility: N/A

Pressure: 29.86 "Hg

Humidity: 100%

Dew point: 72 °F

Location of San SalvadorLocation

Historic Weather in San Salvador — Graph

°F

San Salvador temperature yesterday

Maximum temperature yesterday: 90 °F (at 9:50 AM)
Minimum temperature yesterday: 68 °F (at 5:50 AM)
Average temperature yesterday: 79 °F

Past Weeks' High & Low Weather Summary

 TemperatureHumidityPressure
High95 °F (Dec 6, 1:50 PM)100% (Dec 16, 12:50 AM)31.19 "Hg (Dec 16, 12:50 AM)
Low64 °F (Dec 16, 5:50 AM)34% (Dec 9, 2:50 PM)29.77 "Hg (Dec 7, 2:50 PM)
Average81 °F60%29.89 "Hg
* Reported Dec 6 3:50 AM — Dec 21 3:50 AM, San Salvador, Weather by CustomWeather, © 2014

Note: Actual official high and low records may vary slightly from our data, if they occured in-between our weather recording intervals... More about our weather records

Advertising

San Salvador weather history for previous 24 hours

 ConditionsComfort  
Time TempWeatherWind HumidityBarometerVisibility
3:50 AM
Dec 21
72 °FPassing clouds.3 mph100%29.86 "HgN/A
2:50 AM73 °FClear.2 mph100%29.86 "Hg10 mi
1:50 AM73 °FClear.2 mph100%29.86 "Hg10 mi
11:50 PM
Dec 20
75 °FClear.5 mph100%29.92 "Hg10 mi
10:50 PM75 °FPassing clouds.3 mph100%29.92 "HgN/A
9:50 PM77 °FPassing clouds.3 mph89%29.92 "HgN/A
8:50 PM79 °FPassing clouds.3 mph89%29.92 "HgN/A
7:50 PM77 °FOvercast.2 mph89%29.89 "HgN/A
6:50 PM77 °FPassing clouds.1 mph89%29.86 "HgN/A
5:50 PM79 °FPassing clouds.3 mph84%29.86 "HgN/A
4:50 PM82 °FPassing clouds.3 mph74%29.83 "HgN/A
3:50 PM86 °FPassing clouds.7 mph62%29.83 "Hg0 mi
2:50 PM88 °FPassing clouds.8 mph55%29.83 "HgN/A
1:50 PM88 °FPassing clouds.9 mph55%29.83 "HgN/A
12:50 PM90 °FPartly sunny.8 mph52%29.86 "HgN/A
11:50 AM90 °FPartly sunny.6 mph55%29.89 "HgN/A
10:50 AM88 °FPartly sunny.3 mph55%29.92 "HgN/A
9:50 AM90 °FPassing clouds.3 mph52%29.92 "HgN/A
8:50 AM84 °FPassing clouds.3 mph66%29.92 "HgN/A
7:50 AM81 °FSleet. Sunny.2 mph74%29.89 "HgN/A
6:50 AM73 °FSunny.3 mph94%29.89 "Hg10 mi
5:50 AM68 °FClear.1 mph100%29.86 "Hg10 mi
Weather by CustomWeather, © 2014

See weather overviewHow to use our weather pages